Weather History for KOXR - February, 2014

Change the Weather History Date:

Tuesday, February 18, 2014

  Actual Average Record
Temperature  
Mean Temperature 53 °F -  
Max Temperature 60 °F 65 °F 86 °F (1981)
Min Temperature 46 °F 45 °F 31 °F (1952)
Degree Days  
Heating Degree Days 12    
Growing Degree Days 3 (Base 50)    
Moisture  
Dew Point 49 °F    
Average Humidity 83    
Maximum Humidity 93    
Minimum Humidity 68    
Precipitation  
Precipitation 0.00 in - - ()
Sea Level Pressure  
Sea Level Pressure 30.03 in    
Wind  
Wind Speed 4 mph (WNW)    
Max Wind Speed 10 mph    
Max Gust Speed -    
Visibility 8 miles    
Events      
Averages and records for this station are not official NWS values.
T = Trace of Precipitation, MM = Missing Value Source: NWS Daily Summary

Daily Weather History Graph

Daily Weather History Graph

Search for Another Location

Airport or City:

Trip Planner

Search our weather history database for the weather conditions in past years. The results will help you decide how hot, cold, wet, or windy it might be!

Date:

Astronomy

Feb. 18, 2014 Rise Set
Actual Time 6:38 AM PST 5:43 PM PST
Civil Twilight 6:12 AM PST 6:08 PM PST
Nautical Twilight 5:43 AM PST 6:38 PM PST
Astronomical Twilight 5:14 AM PST 7:07 PM PST
Moon 9:29 PM PST (2/18) 8:24 AM PST (2/18)
Length of Visible Light 11h 56m
Length of Day
11h 05m
Waning Gibbous, 86% of the Moon is Illuminated
Feb 18
Waning Gibbous
Feb 22
Last Quarter
Mar 1
New
Mar 8
First Quarter
Mar 16
Full

Hourly Weather History & Observations

Time (PST) Temp. Windchill Dew Point Humidity Pressure Visibility Wind Dir Wind Speed Gust Speed Precip Events Conditions
12:51 AM 50.0 °F - 46.9 °F 89% 30.05 in 8.0 mi NNE 3.5 mph - N/A   Clear
1:51 AM 48.0 °F - 46.0 °F 93% 30.03 in 8.0 mi East 4.6 mph - N/A   Clear
2:51 AM 48.0 °F - 45.0 °F 89% 30.03 in 9.0 mi Calm Calm - N/A   Clear
3:51 AM 46.9 °F - 45.0 °F 93% 30.02 in 9.0 mi ENE 3.5 mph - N/A   Clear
4:51 AM 46.9 °F - 45.0 °F 93% 30.03 in 9.0 mi ENE 3.5 mph - N/A   Clear
5:51 AM 46.0 °F 43.9 °F 44.1 °F 93% 30.04 in 9.0 mi NE 4.6 mph - N/A   Clear
6:51 AM 46.0 °F 43.9 °F 43.0 °F 89% 30.05 in 8.0 mi ENE 4.6 mph - N/A   Clear
7:51 AM 50.0 °F - 46.0 °F 86% 30.07 in 8.0 mi Calm Calm - N/A   Clear
8:51 AM 55.9 °F - 48.9 °F 77% 30.08 in 8.0 mi Calm Calm - N/A   Clear
9:35 AM 57.2 °F - 50.0 °F 77% 30.07 in 7.0 mi WNW 3.5 mph - N/A   Mostly Cloudy
9:51 AM 59.0 °F - 50.0 °F 72% 30.07 in 6.0 mi Calm Calm - N/A   Haze
10:51 AM 60.1 °F - 50.0 °F 69% 30.07 in 6.0 mi WSW 4.6 mph - N/A   Haze
11:51 AM 60.1 °F - 50.0 °F 69% 30.04 in 6.0 mi WSW 6.9 mph - N/A   Haze
12:28 PM 60.8 °F - 50.0 °F 68% 30.04 in 6.0 mi West 10.4 mph - N/A   Haze
12:51 PM 60.1 °F - 51.1 °F 72% 30.03 in 7.0 mi WSW 8.1 mph - N/A   Overcast
1:51 PM 60.1 °F - 50.0 °F 69% 30.00 in 7.0 mi West 8.1 mph - N/A   Mostly Cloudy
2:51 PM 60.1 °F - 51.1 °F 72% 29.99 in 9.0 mi WSW 8.1 mph - N/A   Clear
3:51 PM 57.9 °F - 52.0 °F 81% 30.00 in 9.0 mi West 9.2 mph - N/A   Partly Cloudy
4:51 PM 57.9 °F - 51.1 °F 78% 29.99 in 8.0 mi West 5.8 mph - N/A   Partly Cloudy
5:51 PM 57.0 °F - 52.0 °F 83% 30.00 in 9.0 mi West 8.1 mph - N/A   Scattered Clouds
6:51 PM 55.9 °F - 53.1 °F 90% 30.00 in 8.0 mi Calm Calm - N/A   Partly Cloudy
7:51 PM 55.0 °F - 52.0 °F 89% 30.00 in 7.0 mi Calm Calm - N/A   Clear
8:51 PM 55.0 °F - 52.0 °F 89% 30.01 in 7.0 mi Calm Calm - N/A   Clear
9:51 PM 53.1 °F - 50.0 °F 89% 30.01 in 6.0 mi NE 4.6 mph - N/A   Clear
10:51 PM 53.1 °F - 50.0 °F 89% 30.00 in 7.0 mi Calm Calm - N/A   Clear
11:51 PM 52.0 °F - 48.9 °F 89% 29.98 in 7.0 mi Calm Calm - N/A   Clear